Year,Month,Day,Hour,Minute,Value (Times are PST for temperature in C)
2011,05,21,08,47,11.30
2011,05,21,08,48,11.30
2011,05,21,08,49,11.30
2011,05,21,08,50,11.30
2011,05,21,08,51,11.30
2011,05,21,08,52,11.30
2011,05,21,08,53,11.30
2011,05,21,08,54,11.30
2011,05,21,08,55,11.30
2011,05,21,08,56,11.30
2011,05,21,08,57,11.30
2011,05,21,08,58,11.30
2011,05,21,08,59,11.30
2011,05,21,09,00,11.30
2011,05,21,09,01,11.30
2011,05,21,09,02,11.30
2011,05,21,09,03,11.30
2011,05,21,09,04,11.30
2011,05,21,09,05,11.40
2011,05,21,09,06,11.40
2011,05,21,09,07,11.40
2011,05,21,09,08,11.40
2011,05,21,09,09,11.50
2011,05,21,09,10,11.50
2011,05,21,09,11,11.50
2011,05,21,09,12,11.60
2011,05,21,09,13,11.60
2011,05,21,09,14,11.60
2011,05,21,09,15,11.60
2011,05,21,09,16,11.60
2011,05,21,09,17,11.60
2011,05,21,09,18,11.60
2011,05,21,09,19,11.60
2011,05,21,09,20,11.50
2011,05,21,09,21,11.50
2011,05,21,09,22,11.50
2011,05,21,09,23,11.50
2011,05,21,09,24,11.50
2011,05,21,09,25,11.50
2011,05,21,09,26,11.40
2011,05,21,09,27,11.50
2011,05,21,09,28,11.50
2011,05,21,09,29,11.50
2011,05,21,09,30,11.40
2011,05,21,09,31,11.40
2011,05,21,09,32,11.40
2011,05,21,09,33,11.40
2011,05,21,09,34,11.40
2011,05,21,09,35,11.50
2011,05,21,09,36,11.50
2011,05,21,09,37,11.50
2011,05,21,09,38,11.50
2011,05,21,09,39,11.50
2011,05,21,09,40,11.50
2011,05,21,09,41,11.50
2011,05,21,09,42,11.40
2011,05,21,09,43,11.40
2011,05,21,09,44,11.40
2011,05,21,09,45,11.40
2011,05,21,09,46,11.40
2011,05,21,09,47,11.40
2011,05,21,09,48,11.40
2011,05,21,09,49,11.40
2011,05,21,09,50,11.40
2011,05,21,09,51,11.40
2011,05,21,09,52,11.40
2011,05,21,09,53,11.40
2011,05,21,09,54,11.40
2011,05,21,09,55,11.40
2011,05,21,09,56,11.40
2011,05,21,09,57,11.40
2011,05,21,09,58,11.40
2011,05,21,09,59,11.50
2011,05,21,10,00,11.50
2011,05,21,10,01,11.50
2011,05,21,10,02,11.50
2011,05,21,10,03,11.50
2011,05,21,10,04,11.40
2011,05,21,10,05,11.40
2011,05,21,10,06,11.40
2011,05,21,10,07,11.40
2011,05,21,10,08,11.40
2011,05,21,10,09,11.40
2011,05,21,10,10,11.40
2011,05,21,10,11,11.40
2011,05,21,10,12,11.40
2011,05,21,10,13,11.40
2011,05,21,10,14,11.40
2011,05,21,10,15,11.40
2011,05,21,10,16,11.40
2011,05,21,10,17,11.30
2011,05,21,10,18,11.30
2011,05,21,10,19,11.30
2011,05,21,10,20,11.30
2011,05,21,10,21,11.30
2011,05,21,10,22,11.30
2011,05,21,10,23,11.30
2011,05,21,10,24,11.30
2011,05,21,10,25,11.30
2011,05,21,10,26,11.20
2011,05,21,10,27,11.20
2011,05,21,10,28,11.20
2011,05,21,10,29,11.20
2011,05,21,10,30,11.10
2011,05,21,10,31,11.10
2011,05,21,10,32,11.10
2011,05,21,10,33,11.20
2011,05,21,10,34,11.20
2011,05,21,10,35,11.20
2011,05,21,10,36,11.30
2011,05,21,10,37,11.30
2011,05,21,10,38,11.30
2011,05,21,10,39,11.30
2011,05,21,10,40,11.40
2011,05,21,10,41,11.40
2011,05,21,10,42,11.40
2011,05,21,10,43,11.40
2011,05,21,10,44,11.40
2011,05,21,10,45,11.40
2011,05,21,10,46,11.40
2011,05,21,10,47,11.40
2011,05,21,10,48,11.40
2011,05,21,10,49,11.40
2011,05,21,10,50,11.40
2011,05,21,10,51,11.40
2011,05,21,10,52,11.40
2011,05,21,10,53,11.50
2011,05,21,10,54,11.50
2011,05,21,10,55,11.50
2011,05,21,10,56,11.60
2011,05,21,10,57,11.60
2011,05,21,10,58,11.60
2011,05,21,10,59,11.60
2011,05,21,11,00,11.60
2011,05,21,11,01,11.60
2011,05,21,11,02,11.60
2011,05,21,11,03,11.60
2011,05,21,11,04,11.60
2011,05,21,11,05,11.60
2011,05,21,11,06,11.60
2011,05,21,11,07,11.60
2011,05,21,11,08,11.60
2011,05,21,11,09,11.60
2011,05,21,11,10,11.60
2011,05,21,11,11,11.50
2011,05,21,11,12,11.50
2011,05,21,11,13,11.50
2011,05,21,11,14,11.40
2011,05,21,11,15,11.40
2011,05,21,11,16,11.40
2011,05,21,11,17,11.40
2011,05,21,11,18,11.50
2011,05,21,11,19,11.50
2011,05,21,11,20,11.60
2011,05,21,11,21,11.60
2011,05,21,11,22,11.60
2011,05,21,11,23,11.70
2011,05,21,11,24,11.70
2011,05,21,11,25,11.70
2011,05,21,11,26,11.80
2011,05,21,11,27,11.80
2011,05,21,11,28,11.80
2011,05,21,11,29,11.80
2011,05,21,11,30,11.80
2011,05,21,11,31,11.80
2011,05,21,11,32,11.80
2011,05,21,11,33,11.80
2011,05,21,11,34,11.80
2011,05,21,11,35,11.80
2011,05,21,11,36,11.80
2011,05,21,11,37,11.80
2011,05,21,11,38,11.80
2011,05,21,11,39,11.80
2011,05,21,11,40,11.80
2011,05,21,11,41,11.80
2011,05,21,11,42,11.80
2011,05,21,11,43,11.80
2011,05,21,11,44,11.80
2011,05,21,11,45,11.80
2011,05,21,11,46,11.80
2011,05,21,11,47,11.90
2011,05,21,11,48,12.00
2011,05,21,11,49,12.00
2011,05,21,11,50,12.10
2011,05,21,11,51,12.10
2011,05,21,11,52,12.10
2011,05,21,11,53,12.10
2011,05,21,11,54,12.20
2011,05,21,11,55,12.20
2011,05,21,11,56,12.20
2011,05,21,11,57,12.30
2011,05,21,11,58,12.30
2011,05,21,11,59,12.30
2011,05,21,12,00,12.30
2011,05,21,12,01,12.30
2011,05,21,12,02,12.40
2011,05,21,12,03,12.40
2011,05,21,12,04,12.40
2011,05,21,12,05,12.30
2011,05,21,12,06,12.30
2011,05,21,12,07,12.40
2011,05,21,12,08,12.40
2011,05,21,12,09,12.40
2011,05,21,12,10,12.40
2011,05,21,12,11,12.50
2011,05,21,12,12,12.50
2011,05,21,12,13,12.60
2011,05,21,12,14,12.60
2011,05,21,12,15,12.60
2011,05,21,12,16,12.70
2011,05,21,12,17,12.70
2011,05,21,12,18,12.70
2011,05,21,12,19,12.60
2011,05,21,12,20,12.50
2011,05,21,12,21,12.40
2011,05,21,12,22,12.40
2011,05,21,12,23,12.30
2011,05,21,12,24,12.30
2011,05,21,12,25,12.20
2011,05,21,12,26,12.20
2011,05,21,12,27,12.20
2011,05,21,12,28,12.20
2011,05,21,12,29,12.20
2011,05,21,12,30,12.20
2011,05,21,12,31,12.30
2011,05,21,12,32,12.30
2011,05,21,12,33,12.30
2011,05,21,12,34,12.30
2011,05,21,12,35,12.20
2011,05,21,12,36,12.20
2011,05,21,12,37,12.10
2011,05,21,12,38,12.10
2011,05,21,12,39,12.10
2011,05,21,12,40,12.10
2011,05,21,12,41,12.10
2011,05,21,12,42,12.10
2011,05,21,12,43,12.20
2011,05,21,12,44,12.20
2011,05,21,12,45,12.20
2011,05,21,12,46,12.20
2011,05,21,12,47,12.20
2011,05,21,12,48,12.20
2011,05,21,12,49,12.20
2011,05,21,12,50,12.20
2011,05,21,12,51,12.10
2011,05,21,12,52,12.10
2011,05,21,12,53,12.00
2011,05,21,12,54,12.00
2011,05,21,12,55,11.90
2011,05,21,12,56,11.90
2011,05,21,12,57,11.90
2011,05,21,12,58,11.90
2011,05,21,12,59,11.90
2011,05,21,13,00,12.00
2011,05,21,13,01,12.00
2011,05,21,13,02,12.00
2011,05,21,13,03,12.00
2011,05,21,13,04,12.00
2011,05,21,13,05,12.00
2011,05,21,13,06,12.00
2011,05,21,13,07,12.00
2011,05,21,13,08,12.00
2011,05,21,13,09,12.00
2011,05,21,13,10,12.00
2011,05,21,13,11,11.90
2011,05,21,13,12,11.90
2011,05,21,13,13,11.90
2011,05,21,13,14,11.80
2011,05,21,13,15,11.80
2011,05,21,13,16,11.80
2011,05,21,13,17,11.80
2011,05,21,13,18,11.80
2011,05,21,13,19,11.80
2011,05,21,13,20,11.80
2011,05,21,13,21,11.80
2011,05,21,13,22,11.70
2011,05,21,13,23,11.70
2011,05,21,13,24,11.70
2011,05,21,13,25,11.70
2011,05,21,13,26,11.70
2011,05,21,13,27,11.70
2011,05,21,13,28,11.70
2011,05,21,13,29,11.70
2011,05,21,13,30,11.70
2011,05,21,13,31,11.70
2011,05,21,13,32,11.70
2011,05,21,13,33,11.70
2011,05,21,13,34,11.80
2011,05,21,13,35,11.80
2011,05,21,13,36,11.80
2011,05,21,13,37,11.80
2011,05,21,13,38,11.80
2011,05,21,13,39,11.80
2011,05,21,13,40,11.80
2011,05,21,13,41,11.70
2011,05,21,13,42,11.70
2011,05,21,13,43,11.80
2011,05,21,13,44,11.80
2011,05,21,13,45,11.80
2011,05,21,13,46,11.80
2011,05,21,13,47,11.90
2011,05,21,13,48,11.90
2011,05,21,13,49,11.90
2011,05,21,13,50,11.90
2011,05,21,13,51,11.90
2011,05,21,13,52,11.90
2011,05,21,13,53,11.90
2011,05,21,13,54,11.90
2011,05,21,13,55,11.90
2011,05,21,13,56,11.90
2011,05,21,13,57,11.90
2011,05,21,13,58,11.90
2011,05,21,13,59,11.90
2011,05,21,14,00,11.90
2011,05,21,14,01,11.90
2011,05,21,14,02,11.90
2011,05,21,14,03,11.90
2011,05,21,14,04,11.90
2011,05,21,14,05,11.90
2011,05,21,14,06,11.90
2011,05,21,14,07,11.90
2011,05,21,14,08,11.90
2011,05,21,14,09,11.90
2011,05,21,14,10,11.90
2011,05,21,14,11,11.80
2011,05,21,14,12,11.80
2011,05,21,14,13,11.80
2011,05,21,14,14,11.80
2011,05,21,14,15,11.80
2011,05,21,14,16,11.80
2011,05,21,14,17,11.80
2011,05,21,14,18,11.80
2011,05,21,14,19,11.80
2011,05,21,14,20,11.80
2011,05,21,14,21,11.80
2011,05,21,14,22,11.80
2011,05,21,14,23,11.80
2011,05,21,14,24,11.80
2011,05,21,14,25,11.80
2011,05,21,14,26,11.80
2011,05,21,14,27,11.80
2011,05,21,14,28,11.80
2011,05,21,14,29,11.80
2011,05,21,14,30,11.80
2011,05,21,14,31,11.80
2011,05,21,14,32,11.80
2011,05,21,14,33,11.70
2011,05,21,14,34,11.70
2011,05,21,14,35,11.70
2011,05,21,14,36,11.60
2011,05,21,14,37,11.60
2011,05,21,14,38,11.60
2011,05,21,14,39,11.60
2011,05,21,14,40,11.60
2011,05,21,14,41,11.60
2011,05,21,14,42,11.50
2011,05,21,14,43,11.50
2011,05,21,14,44,11.50
2011,05,21,14,45,11.50
2011,05,21,14,46,11.50
2011,05,21,14,47,11.50
2011,05,21,14,48,11.50
2011,05,21,14,49,11.50
2011,05,21,14,50,11.50
2011,05,21,14,51,11.50
2011,05,21,14,52,11.50
2011,05,21,14,53,11.50
2011,05,21,16,18,11.10
2011,05,21,16,19,11.10
2011,05,21,16,20,11.10
2011,05,21,16,21,11.10
2011,05,21,16,22,11.10
2011,05,21,16,23,11.20
2011,05,21,16,24,11.20
2011,05,21,16,25,11.20
2011,05,21,16,26,11.20
2011,05,21,16,27,11.20
2011,05,21,16,28,11.20
2011,05,21,16,29,11.20
2011,05,21,16,30,11.20
2011,05,21,16,31,11.30
2011,05,21,16,32,11.30
2011,05,21,16,33,11.30
2011,05,21,16,34,11.30
2011,05,21,16,35,11.30
2011,05,21,16,36,11.40
2011,05,21,16,37,11.50
2011,05,21,16,38,11.50
2011,05,21,16,39,11.50
2011,05,21,16,40,11.60
2011,05,21,16,41,11.60
2011,05,21,16,42,11.60
2011,05,21,16,43,11.60
2011,05,21,16,44,11.50
2011,05,21,16,45,11.50
2011,05,21,16,46,11.40
2011,05,21,16,47,11.40
2011,05,21,16,48,11.40
2011,05,21,16,49,11.40
2011,05,21,16,50,11.40
2011,05,21,16,51,11.50
2011,05,21,16,52,11.60
2011,05,21,16,53,11.60
2011,05,21,16,54,11.60
2011,05,21,16,55,11.60
2011,05,21,16,56,11.60
2011,05,21,16,57,11.70
2011,05,21,16,58,11.70
2011,05,21,16,59,11.60
2011,05,21,17,00,11.60
2011,05,21,17,01,11.60
2011,05,21,17,02,11.60
2011,05,21,17,03,11.60
2011,05,21,17,04,11.60
2011,05,21,17,05,11.60
2011,05,21,17,06,11.70
2011,05,21,17,07,11.70
2011,05,21,17,08,11.70
2011,05,21,17,09,11.70
2011,05,21,17,10,11.70
2011,05,21,17,11,11.70
2011,05,21,17,12,11.80
2011,05,21,17,13,11.80
2011,05,21,17,14,11.70
2011,05,21,17,15,11.70
2011,05,21,17,16,11.70
2011,05,21,17,17,11.70
2011,05,21,17,18,11.70
2011,05,21,17,19,11.70
2011,05,21,17,20,11.70
2011,05,21,17,21,11.80
2011,05,21,17,22,11.80
2011,05,21,17,23,11.80
2011,05,21,17,24,11.80
2011,05,21,17,25,11.80
2011,05,21,17,26,11.80
2011,05,21,17,27,11.80
2011,05,21,17,28,11.80
2011,05,21,17,29,11.80
2011,05,21,17,30,11.80
2011,05,21,17,31,11.80
2011,05,21,17,32,11.80
2011,05,21,17,33,11.90
2011,05,21,17,34,11.90
2011,05,21,17,35,11.80
2011,05,21,17,36,11.80
2011,05,21,17,37,11.80
2011,05,21,17,38,11.80
2011,05,21,17,39,11.80
2011,05,21,17,40,11.80
2011,05,21,17,41,11.80
2011,05,21,17,42,11.70
2011,05,21,17,43,11.70
2011,05,21,17,44,11.70
2011,05,21,17,45,11.70
2011,05,21,17,46,11.70
2011,05,21,17,47,11.70
2011,05,21,17,48,11.70
2011,05,21,17,49,11.70
2011,05,21,17,50,11.80
2011,05,21,17,51,11.80
2011,05,21,17,52,11.80
2011,05,21,17,53,11.80
2011,05,21,17,54,11.80
2011,05,21,17,55,11.80
2011,05,21,17,56,11.80
2011,05,21,17,57,11.80
2011,05,21,17,58,11.80
2011,05,21,17,59,11.80
2011,05,21,18,00,11.80
2011,05,21,18,01,11.80
2011,05,21,18,02,11.80
2011,05,21,18,03,11.90
2011,05,21,18,04,11.90
2011,05,21,18,05,11.90
2011,05,21,18,06,11.90
2011,05,21,18,07,11.90
2011,05,21,18,08,11.90
2011,05,21,18,09,11.90
2011,05,21,18,10,11.80
2011,05,21,18,11,11.80
2011,05,21,18,12,11.80
2011,05,21,18,13,11.80
2011,05,21,18,14,11.80
2011,05,21,18,15,11.80
2011,05,21,18,16,11.80
2011,05,21,18,17,11.80
2011,05,21,18,18,11.80
2011,05,21,18,19,11.80
2011,05,21,18,20,11.80
2011,05,21,18,21,11.80
2011,05,21,18,22,11.80
2011,05,21,18,23,11.80
2011,05,21,18,24,11.80
2011,05,21,18,25,11.80
2011,05,21,18,26,11.70
2011,05,21,18,27,11.70
2011,05,21,18,28,11.70
2011,05,21,18,29,11.70
2011,05,21,18,30,11.70
2011,05,21,18,31,11.80
2011,05,21,18,32,11.80
2011,05,21,18,33,11.70
2011,05,21,18,34,11.70
2011,05,21,18,35,11.70
2011,05,21,18,36,11.70
2011,05,21,18,37,11.60
2011,05,21,18,38,11.60
2011,05,21,18,39,11.60
2011,05,21,18,40,11.60
2011,05,21,18,41,11.60
2011,05,21,18,42,11.60
2011,05,21,18,43,11.60
2011,05,21,18,44,11.50
2011,05,21,18,45,11.50
2011,05,21,18,46,11.40
2011,05,21,18,47,11.40
2011,05,21,18,48,11.40
2011,05,21,18,49,11.40
2011,05,21,18,50,11.40
2011,05,21,18,51,11.50
2011,05,21,18,52,11.50
2011,05,21,18,53,11.50
2011,05,21,18,54,11.50
2011,05,21,18,55,11.50
2011,05,21,18,56,11.50
2011,05,21,18,57,11.50
2011,05,21,18,58,11.50
2011,05,21,18,59,11.50
2011,05,21,19,00,11.50
2011,05,21,19,01,11.50
2011,05,21,19,02,11.50
2011,05,21,19,03,11.50
2011,05,21,19,04,11.50
2011,05,21,19,05,11.50
